Location: Fiddletown
(38.4917°N, 120.6633°W)
Time: 07:53:21
(UTC-07:00)

Envisat - Visible Passes

Search period start: 20 April 2018 00:00
Search period end: 30 April 2018 00:00
Orbit: 764 x 766 km, 98.2° (Epoch: 20 April)

Date Brightness Start Highest point End Pass type
(mag) Time Alt. Az. Time Alt. Az. Time Alt. Az.
20 Apr 4.3 21:02:50 10° SSW 21:07:34 39° W 21:12:20 10° NNW visible
21 Apr 3.0 20:25:43 10° SSE 20:30:47 89° E 20:35:54 10° NNW visible
22 Apr 5.3 21:29:25 10° SW 21:33:19 22° W 21:37:14 10° NW visible
23 Apr 3.9 20:51:28 10° S 20:56:23 50° W 21:01:20 10° NNW visible
24 Apr 3.0 20:14:38 10° SSE 20:19:40 71° ENE 20:24:44 10° N visible
24 Apr 5.8 21:57:15 10° WSW 21:59:09 12° W 22:01:03 10° WNW visible
25 Apr 4.9 21:17:45 10° SSW 21:22:05 28° W 21:26:26 10° NW visible
26 Apr 3.4 20:40:12 10° S 20:45:13 65° W 20:50:17 10° NNW visible
27 Apr 5.6 21:44:53 10° SW 21:47:53 16° W 21:50:53 10° NW visible
28 Apr 4.5 21:06:15 10° SSW 21:10:53 36° W 21:15:32 10° NNW visible
29 Apr 3.1 20:28:59 10° SSE 20:34:04 83° W 20:39:10 10° NNW visible
